Weather History for Grand Forks, ND

Change the Weather History Date:

Monday, May 14, 2012

  Actual Average Record
Temperature  
Mean Temperature 66 °F 54 °F  
Max Temperature 85 °F 68 °F 91 °F (1976)
Min Temperature 46 °F 41 °F 24 °F (1945)
Degree Days  
Heating Degree Days 0 11  
Month to date heating degree days 101 189  
Since 1 July heating degree days 7327 9267  
Cooling Degree Days 1 0  
Month to date cooling degree days 3 0  
Year to date cooling degree days 3 1  
Growing Degree Days 16 (Base 50)    
Moisture  
Dew Point 37 °F    
Average Humidity 47    
Maximum Humidity 77    
Minimum Humidity 16    
Precipitation  
Precipitation 0.00 in 0.09 in 0.70 in (1982)
Month to date precipitation 0.47 1.08  
Year to date precipitation 4.56 4.12  
Snow  
Snow 0.00 in 0.00 in - ()
Month to date snowfall 0.0 0.1  
Since 1 July snowfall 22.8 47.4  
Snow Depth 0.00 in    
Sea Level Pressure  
Sea Level Pressure 29.85 in    
Wind  
Wind Speed 7 mph (WNW)    
Max Wind Speed 37 mph    
Max Gust Speed 47 mph    
Visibility 10 miles    
Events      
T = Trace of Precipitation, MM = Missing Value Source: NWS Daily Summary

Daily Weather History Graph

Daily Weather History Graph

Search for Another Location

Airport:

Trip Planner

Search our weather history database for the weather conditions in past years. The results will help you decide how hot, cold, wet, or windy it might be!

Date:

Astronomy

May. 14, 2012 Rise Set
Actual Time 5:50 AM CDT 9:00 PM CDT
Civil Twilight 5:13 AM CDT 9:37 PM CDT
Nautical Twilight 4:25 AM CDT 10:25 PM CDT
Astronomical Twilight 3:26 AM CDT 11:26 PM CDT
Moon 2:51 AM CDT (5/14) 2:58 PM CDT (5/14)
Length of Visible Light 16h 23m
Length of Day
15h 09m
Waning Crescent, 32% of the Moon is Illuminated
May 14
Waning Crescent
May 20
New
May 28
First Quarter
Jun 4
Full
Jun 11
Last Quarter

Hourly Weather History & Observations

Time (CDT) Temp. Dew Point Humidity Pressure Visibility Wind Dir Wind Speed Gust Speed Precip Events Conditions
12:53 AM 55.0 °F 37.0 °F 51% 29.89 in 10.0 mi West 6.9 mph - N/A   Clear
1:53 AM 52.0 °F 37.0 °F 57% 29.89 in 10.0 mi West 5.8 mph - N/A   Clear
2:53 AM 51.1 °F 37.0 °F 59% 29.90 in 10.0 mi West 6.9 mph - N/A   Clear
3:53 AM 50.0 °F 37.0 °F 61% 29.91 in 10.0 mi West 3.5 mph - N/A   Clear
4:53 AM 50.0 °F 37.9 °F 63% 29.91 in 10.0 mi WNW 4.6 mph - N/A   Clear
5:53 AM 48.0 °F 39.0 °F 71% 29.91 in 10.0 mi Calm Calm - N/A   Clear
6:53 AM 48.9 °F 41.0 °F 74% 29.92 in 10.0 mi Calm Calm - N/A   Partly Cloudy
7:53 AM 59.0 °F 42.1 °F 53% 29.92 in 10.0 mi Calm Calm - N/A   Partly Cloudy
8:53 AM 64.0 °F 41.0 °F 43% 29.92 in 10.0 mi Calm Calm - N/A   Partly Cloudy
9:53 AM 66.9 °F 39.9 °F 37% 29.91 in 10.0 mi Calm Calm - N/A   Partly Cloudy
10:53 AM 73.0 °F 42.1 °F 33% 29.89 in 10.0 mi Calm Calm - N/A   Partly Cloudy
11:53 AM 78.1 °F 37.9 °F 24% 29.88 in 10.0 mi Variable 3.5 mph - N/A   Partly Cloudy
12:53 PM 81.0 °F 39.0 °F 22% 29.86 in 10.0 mi WNW 6.9 mph - N/A   Scattered Clouds
1:53 PM 82.9 °F 39.0 °F 21% 29.83 in 10.0 mi Variable 3.5 mph - N/A   Scattered Clouds
2:53 PM 84.0 °F 39.0 °F 20% 29.81 in 10.0 mi WSW 8.1 mph - N/A   Scattered Clouds
3:53 PM 84.0 °F 37.0 °F 19% 29.79 in 10.0 mi WSW 9.2 mph 18.4 mph N/A   Scattered Clouds
4:53 PM 84.9 °F 35.1 °F 17% 29.78 in 10.0 mi NW 10.4 mph 18.4 mph N/A   Scattered Clouds
5:53 PM 84.0 °F 33.1 °F 16% 29.78 in 10.0 mi NW 10.4 mph - N/A   Scattered Clouds
6:53 PM 81.0 °F 34.0 °F 18% 29.77 in 10.0 mi WNW 5.8 mph - N/A   Scattered Clouds
7:53 PM 81.0 °F 32.0 °F 17% 29.75 in 10.0 mi West 12.7 mph - N/A   Scattered Clouds
8:53 PM 72.0 °F 34.0 °F 25% 29.74 in 10.0 mi WSW 8.1 mph - N/A   Scattered Clouds
9:53 PM 70.0 °F 34.0 °F 27% 29.75 in 10.0 mi WSW 9.2 mph - N/A   Scattered Clouds
10:53 PM 71.6 °F 32.0 °F 23% 29.78 in 10.0 mi NW 18.4 mph 26.5 mph N/A   Scattered Clouds
11:18 PM 66.2 °F 35.6 °F 32% 29.82 in 3.0 mi North 27.6 mph 44.9 mph N/A   Widespread Dust
11:53 PM 62.1 °F 36.0 °F 38% 29.84 in 6.0 mi North 24.2 mph 35.7 mph N/A   Haze